TimePDT,TemperatureF,Dew PointF,Humidity,Sea Level PressureIn,VisibilityMPH,Wind Direction,Wind SpeedMPH,Gust SpeedMPH,PrecipitationIn,Events,Conditions,WindDirDegrees,DateUTC
12:56 AM,52.0,36.0,54,29.92,10.0,North,9.2,-,N/A,,Clear,360,2013-06-15 07:56:00
1:56 AM,55.0,35.1,47,29.89,10.0,North,3.5,-,N/A,,Clear,360,2013-06-15 08:56:00
2:56 AM,54.0,37.0,53,29.88,10.0,Calm,Calm,-,N/A,,Clear,0,2013-06-15 09:56:00
3:56 AM,55.0,37.0,51,29.86,10.0,Calm,Calm,-,N/A,,Clear,0,2013-06-15 10:56:00
4:56 AM,53.1,37.9,57,29.86,10.0,Calm,Calm,-,N/A,,Clear,0,2013-06-15 11:56:00
5:56 AM,53.1,36.0,52,29.88,10.0,SSW,3.5,-,N/A,,Clear,200,2013-06-15 12:56:00
6:56 AM,54.0,36.0,51,29.88,10.0,SE,3.5,-,N/A,,Clear,140,2013-06-15 13:56:00
7:56 AM,57.0,37.0,47,29.89,10.0,Calm,Calm,-,N/A,,Clear,0,2013-06-15 14:56:00
8:56 AM,60.1,34.0,38,29.90,10.0,Calm,Calm,-,N/A,,Clear,0,2013-06-15 15:56:00
9:56 AM,60.1,42.1,51,29.92,10.0,Calm,Calm,-,N/A,,Clear,0,2013-06-15 16:56:00
10:56 AM,60.1,39.9,47,29.92,10.0,Calm,Calm,-,N/A,,Clear,0,2013-06-15 17:56:00
11:56 AM,64.9,37.0,36,29.92,10.0,Variable,3.5,-,N/A,,Clear,0,2013-06-15 18:56:00
12:56 PM,66.0,33.1,29,29.92,10.0,Calm,Calm,-,N/A,,Clear,0,2013-06-15 19:56:00
1:56 PM,69.1,34.0,27,29.89,10.0,Variable,3.5,-,N/A,,Clear,0,2013-06-15 20:56:00
2:56 PM,70.0,37.0,30,29.89,10.0,Variable,3.5,-,N/A,,Clear,0,2013-06-15 21:56:00
3:56 PM,73.0,39.9,30,29.88,10.0,Variable,3.5,-,N/A,,Clear,0,2013-06-15 22:56:00
4:56 PM,71.1,43.0,36,29.89,10.0,Variable,3.5,-,N/A,,Clear,0,2013-06-15 23:56:00
5:56 PM,66.9,43.0,42,29.91,10.0,Variable,3.5,-,N/A,,Clear,0,2013-06-16 00:56:00
6:56 PM,64.9,42.1,43,29.93,10.0,Calm,Calm,-,N/A,,Clear,0,2013-06-16 01:56:00
7:56 PM,62.1,42.1,48,29.94,10.0,Variable,6.9,19.6,N/A,,Clear,0,2013-06-16 02:56:00
8:56 PM,57.0,43.0,59,29.95,10.0,NNW,5.8,-,N/A,,Clear,340,2013-06-16 03:56:00
9:56 PM,53.1,42.1,66,29.98,10.0,NNW,9.2,-,N/A,,Clear,340,2013-06-16 04:56:00
10:56 PM,53.1,39.9,61,29.99,10.0,NNW,9.2,-,N/A,,Clear,340,2013-06-16 05:56:00
11:56 PM,51.1,39.9,66,29.99,10.0,North,9.2,-,N/A,,Clear,350,2013-06-16 06:56:00